EW0724 Weather Reports


time (UTC)temp
F
wind
direction
speed
knots
gust
knots
rain 1hr
in
rain 24hr
in
rain mn
in
humidity
%
barometer
mb
20260906090020 69 360 0.0 1.7 0.00 0.00 0.00 100 1013.8
20260906084516 69 360 0.0 1.7 0.00 0.00 0.00 100 1013.8
20260906083101 69 355 0.0 2.6 0.00 0.00 0.00 100 1013.7
20260906081557 69 343 0.9 3.5 0.00 0.00 0.00 100 1013.7
20260906080058 70 19 0.9 3.5 0.00 0.00 0.00 100 1013.6
20260906074552 70 348 0.9 2.6 0.00 0.00 0.00 100 1013.6
20260906073043 70 343 0.0 2.6 0.00 0.00 0.00 100 1013.8
20260906071539 71 45 0.9 2.6 0.00 0.00 0.00 100 1013.6
20260906070036 71 5 0.0 1.7 0.00 0.00 0.00 100 1013.6
20260906064534 71 5 0.0 2.6 0.00 0.00 0.00 100 1013.5
20260906063009 71 65 0.9 3.5 0.00 0.00 0.00 100 1013.5
20260906061504 71 50 0.9 3.5 0.00 0.00 0.00 100 1013.6
20260906060105 71 349 0.0 4.3 0.00 0.00 0.00 100 1013.7
20260906054539 71 16 0.0 2.6 0.00 0.00 0.00 100 1013.4
20260906053035 72 360 0.0 3.5 0.00 0.00 0.00 100 1013.5
20260906051517 72 350 0.0 3.5 0.00 0.00 0.00 100 1013.3
20260906050013 73 44 0.0 1.7 0.00 0.00 0.00 100 1013.2
20260906044508 73 44 0.0 3.5 0.00 0.00 0.00 100 1013.0
20260906043004 73 61 0.9 2.6 0.00 0.00 0.00 100 1012.9
20260906041600 73 52 1.7 3.5 0.00 0.00 0.00 100 1012.7
20260906040056 73 51 0.9 6.1 0.00 0.00 0.00 100 1012.7
20260906034552 74 343 0.9 4.3 0.00 0.00 0.00 100 1012.8
20260906033047 74 17 1.7 4.3 0.00 0.00 0.00 100 1012.8
20260906031530 74 62 0.9 6.1 0.00 0.00 0.00 100 1012.6
20260906030026 75 355 0.9 4.3 0.00 0.00 0.00 100 1012.6
20260906024519 76 15 0.9 5.2 0.00 0.00 0.00 100 1012.4
20260906023016 76 355 1.7 7.0 0.00 0.00 0.00 2 1012.2
20260906021516 77 59 1.7 5.2 0.00 0.00 0.00 8 1011.9
20260906020007 78 33 2.6 5.2 0.00 0.00 0.00 10 1011.8
20260906014505 79 43 0.9 7.0 0.00 0.00 0.00 14 1011.7
20260906013058 79 342 1.7 5.2 0.00 0.00 0.00 17 1011.4
20260906011544 80 55 0.9 3.5 0.00 0.00 0.00 16 1011.2
20260906010037 80 360 0.9 4.3 0.00 0.00 0.00 22 1011.0
20260906004533 81 39 0.0 3.5 0.00 0.00 0.00 31 1010.9
20260906003028 81 298 0.9 6.1 0.00 0.00 0.00 39 1010.5
20260906001523 82 26 0.9 5.2 0.00 0.00 0.00 45 1010.4
20260906000020 83 35 2.6 6.1 0.00 0.00 0.00 53 1010.4
20260905234515 84 53 0.9 4.3 0.00 0.00 0.00 58 1010.3
20260905233010 85 342 0.9 5.2 0.00 0.00 0.00 60 1010.0
20260905231557 86 304 0.9 4.3 0.00 0.00 0.00 62 1009.9
20260905230050 86 88 1.7 7.8 0.00 0.00 0.00 62 1009.9
20260905224605 87 257 1.7 5.2 0.00 0.00 0.00 62 1009.7
20260905223042 88 156 0.0 4.3 0.00 0.00 0.00 62 1009.8
20260905221540 88 22 1.7 6.1 0.00 0.00 0.00 62 1009.5
20260905220033 88 312 0.9 6.1 0.00 0.00 0.00 62 1009.3
20260905214528 89 295 0.9 6.1 0.00 0.00 0.00 62 1009.3
20260905213033 89 251 0.9 4.3 0.00 0.00 0.00 61 1008.9
20260905211502 89 347 0.9 6.1 0.00 0.00 0.00 59 1009.0
20260905210059 88 332 1.7 4.3 0.00 0.00 0.00 58 1009.2
20260905204543 88 17 1.7 5.2 0.00 0.00 0.00 55 1009.2
20260905203040 88 21 1.7 5.2 0.00 0.00 0.00 54 1009.3
20260905201534 89 53 1.7 4.3 0.00 0.00 0.00 57 1009.5
20260905200032 89 56 1.7 4.3 0.00 0.00 0.00 58 1009.5
20260905194525 90 346 1.7 6.1 0.00 0.00 0.00 60 1009.5
20260905193021 90 243 0.9 5.2 0.00 0.00 0.00 61 1009.6
20260905191516 90 292 1.7 5.2 0.00 0.00 0.00 61 1009.6
20260905190013 90 292 0.0 1.7 0.00 0.00 0.00 60 1009.9
20260905184606 90 181 1.7 5.2 0.00 0.00 0.00 62 1010.1
20260905183047 90 227 0.0 6.1 0.00 0.00 0.00 61 1010.1
20260905181529 89 179 1.7 6.1 0.00 0.00 0.00 62 1010.2
20260905180025 89 227 3.5 7.0 0.00 0.00 0.00 62 1010.4
20260905174531 89 219 1.7 5.2 0.00 0.00 0.00 62 1010.5
20260905173026 88 224 4.3 8.7 0.00 0.00 0.00 62 1010.7
20260905171512 87 232 1.7 6.1 0.00 0.00 0.00 61 1010.9
20260905170008 87 162 2.6 9.6 0.00 0.00 0.00 61 1011.2
20260905164503 87 215 2.6 7.8 0.00 0.00 0.00 61 1011.2
20260905163102 86 148 3.5 9.6 0.00 0.00 0.00 61 1011.2
20260905161542 85 163 1.7 7.0 0.00 0.00 0.00 61 1011.3
20260905160038 85 164 0.9 4.3 0.00 0.00 0.00 60 1011.4
20260905154533 83 144 0.9 4.3 0.00 0.00 0.00 57 1011.4
20260905153029 82 188 0.9 3.5 0.00 0.00 0.00 56 1011.4
20260905151524 82 165 0.9 5.2 0.00 0.00 0.00 56 1011.4
20260905150020 81 173 0.9 7.0 0.00 0.00 0.00 50 1011.4
20260905144516 80 196 1.7 5.2 0.00 0.00 0.00 48 1011.7
20260905143011 80 165 0.9 7.0 0.00 0.00 0.00 46 1011.7
20260905141618 79 167 0.9 4.3 0.00 0.00 0.00 43 1011.4
20260905140053 78 193 0.0 5.2 0.00 0.00 0.00 37 1011.2
20260905134546 77 219 1.7 5.2 0.00 0.00 0.00 31 1011.2
20260905133042 76 74 0.9 4.3 0.00 0.00 0.00 19 1011.1
20260905131553 76 184 1.7 6.1 0.00 0.00 0.00 14 1011.1
20260905130036 75 206 0.9 3.5 0.00 0.00 0.00 16 1011.1
20260905124539 75 115 0.9 3.5 0.00 0.00 0.00 11 1011.3
20260905123025 74 193 0.0 3.5 0.00 0.00 0.00 4 1011.3
20260905121529 73 55 0.9 3.5 0.00 0.00 0.00 2 1011.2
20260905120100 0 0.0 0.0 0.00 0.00 0.00 1011.2
20260905114555 0 0.0 0.0 0.00 0.00 0.00 1011.3
20260905113041 0 0.0 0.0 0.00 0.00 0.00 1011.2
20260905111546 0 0.0 0.0 0.00 0.00 0.00 1011.0
20260905110030 0 0.0 0.0 0.00 0.00 0.00 1010.9
20260905104526 0 0.0 0.0 0.00 0.00 0.00 1010.6
20260905103030 0 0.0 0.0 0.00 0.00 0.00 1010.5
20260905101526 0 0.0 0.0 0.00 0.00 0.00 1010.5
20260905100014 0 0.0 0.0 0.00 0.00 0.00 1010.5
20260905094509 0 0.0 0.0 0.00 0.00 0.00 1010.3
20260905093047 78 198 0.0 1.7 0.00 0.00 0.00 100 1010.2
20260905091546 78 198 0.0 0.9 0.00 0.00 0.00 100 1010.1